Regional Weather Roundup
Issued by NWS

Home | Current Version | Previous Version | Graphics & Text | Print | Product List | Glossary On
Versions: 1 2 3 4 5 6 7 8 9 10 11 12 13 14 15 16 17 18 19 20 21 22 23 24 25 26 27 28 29 30 31 32 33 34 35 36 37 38 39 40 41 42 43 44 45 46 47 48 49 50
000
ASUS43 KLSX 051859
RWRMO

WEATHER SUMMARY FOR MISSOURI
NATIONAL WEATHER SERVICE SPRINGFIELD MO
200 PM CDT SUN JUL 05 2015

NOTE: "FAIR" INDICATES FEW OR NO CLOUDS BELOW 12,000 FEET WITH NO
       SIGNIFICANT WEATHER AND/OR OBSTRUCTIONS TO VISIBILITY.
       CURRENT SKY AND/OR WEATHER CONDITIONS ARE NOT AVAILABLE FOR
       CHILLICOTHE AND FARMINGTON.

MOZ001>031-035>038-043-044-053-054-052000-
...NORTHERN AND WESTERN MISSOURI...

CITY           SKY/WX    TMP DP  RH WIND       PRES   REMARKS
KANSAS CTY INT PTSUNNY   84  74  71 S12       29.94F HX  91
KANSAS C DTWN  PTSUNNY   87  73  62 SE10      29.93F HX  94
LEE`S SUMMIT   PTSUNNY   86  74  67 S9G18     29.97F HX  94
ST JOSEPH      PTSUNNY   87  73  62 S13       29.92F HX  94
CHILLICOTHE      N/A     87  71  58 SE9       29.97F HX  93
KIRKSVILLE     PTSUNNY   84  68  58 S12       30.01F

$$
MOZ066>068-077>081-088>096-101>105-052000-
...SOUTHWEST MISSOURI...

CITY           SKY/WX    TMP DP  RH WIND       PRES   REMARKS
SPRINGFIELD    MOSUNNY   85  72  65 VRB6      30.02F HX  91
JOPLIN         PTSUNNY   87  76  69 S12       29.99F HX  97

$$
MOZ032>034-039>042-045>050-055>058-069>072-052000-
...CENTRAL MISSOURI...

CITY           SKY/WX    TMP DP  RH WIND       PRES   REMARKS
COLUMBIA       PTSUNNY   84  72  67 S9        30.02F
JEFFERSON CITY MOSUNNY   83  70  64 SE9       30.00F
ROLLA          MOSUNNY   83  70  64 SE7       30.04F
SEDALIA        PTSUNNY   87  74  64 S12       30.01F HX  95
OSAGE BEACH    PTSUNNY   84  70  61 S3        30.03F

$$
MOZ051-052-059>065-052000-
...EAST CENTRAL MISSOURI...

CITY           SKY/WX    TMP DP  RH WIND       PRES   REMARKS
ST LOUIS INTL  MOSUNNY   87  66  49 SW5       30.05F
SPIRIT OF STL  PTSUNNY   85  68  56 CALM      30.03F
ST CHARLES     MOSUNNY   84  68  58 S8        30.03F

$$
MOZ072>076-082>087-097>100-106>115-052000-
...SOUTH CENTRAL AND SOUTHEAST MISSOURI...

CITY           SKY/WX    TMP DP  RH WIND       PRES   REMARKS
CAPE GIRARDEAU MOSUNNY   81  68  64 SE5       30.07F HAZE
FARMINGTON     PTSUNNY   81  66  61 SE6       30.11F
POPLAR BLUFF   MOSUNNY   82  70  66 VRB7      30.05F
WEST PLAINS    MOSUNNY   82  69  64 S6        30.09F

$$



USA.gov is the U.S. government's official web portal to all federal, state and local government web resources and services.